Weather History for PHKO - September, 2012

Change the Weather History Date:

Saturday, September 29, 2012

  Actual Average Record
Temperature  
Mean Temperature 78 °F -  
Max Temperature 84 °F 84 °F 91 °F (1985)
Min Temperature 73 °F 73 °F 71 °F (1985)
Cooling Degree Days 14    
Growing Degree Days 28 (Base 50)    
Moisture  
Dew Point 66 °F    
Average Humidity 67    
Maximum Humidity 79    
Minimum Humidity 56    
Precipitation  
Precipitation 0.00 in - - ()
Sea Level Pressure  
Sea Level Pressure 29.96 in    
Wind  
Wind Speed 6 mph (SSW)    
Max Wind Speed 13 mph    
Max Gust Speed -    
Visibility 10 miles    
Events      
Averages and records for this station are not official NWS values.
T = Trace of Precipitation, MM = Missing Value Source: NWS Daily Summary

Daily Weather History Graph

Daily Weather History Graph

Search for Another Location

Airport or City:

Trip Planner

Search our weather history database for the weather conditions in past years. The results will help you decide how hot, cold, wet, or windy it might be!

Date:

Astronomy

Sep. 29, 2012 Rise Set
Actual Time 6:14 AM HST 6:13 PM HST
Civil Twilight 5:52 AM HST 6:35 PM HST
Nautical Twilight 5:27 AM HST 7:00 PM HST
Astronomical Twilight 5:01 AM HST 7:26 PM HST
Moon 5:59 PM HST (9/29) 5:52 AM HST (9/29)
Length of Visible Light 12h 42m
Length of Day
11h 58m
Full, 100% of the Moon is Illuminated
Sep 29
Full
Sep 29
Full
Oct 7
Last Quarter
Oct 15
New
Oct 21
First Quarter

Hourly Weather History & Observations

Time (HST) Temp. Heat Index Dew Point Humidity Pressure Visibility Wind Dir Wind Speed Gust Speed Precip Events Conditions
12:53 AM 75.0 °F - 64.9 °F 71% 29.98 in 10.0 mi SE 4.6 mph - N/A   Mostly Cloudy
1:33 AM 77.0 °F - 68.0 °F 74% 29.96 in 10.0 mi South 5.8 mph - N/A   Mostly Cloudy
1:42 AM 77.0 °F - 68.0 °F 74% 29.96 in 10.0 mi South 3.5 mph - N/A   Mostly Cloudy
1:53 AM 77.0 °F - 68.0 °F 74% 29.96 in 10.0 mi WSW 6.9 mph - N/A   Partly Cloudy
2:53 AM 77.0 °F - 68.0 °F 74% 29.96 in 10.0 mi SW 5.8 mph - N/A   Mostly Cloudy
3:05 AM 77.0 °F - 68.0 °F 74% 29.95 in 10.0 mi SW 5.8 mph - N/A   Mostly Cloudy
3:53 AM 75.0 °F - 68.0 °F 79% 29.95 in 10.0 mi ESE 4.6 mph - N/A   Clear
4:53 AM 73.9 °F - 66.9 °F 79% 29.96 in 10.0 mi East 4.6 mph - N/A   Scattered Clouds
5:53 AM 73.0 °F - 64.9 °F 76% 29.96 in 10.0 mi Calm Calm - N/A   Clear
6:53 AM 73.9 °F - 63.0 °F 68% 29.97 in 10.0 mi ESE 4.6 mph - N/A   Clear
7:53 AM 77.0 °F - 64.9 °F 66% 29.99 in 10.0 mi ESE 3.5 mph - N/A   Clear
8:53 AM 81.0 °F 82.7 °F 64.9 °F 58% 30.00 in 10.0 mi SSW 5.8 mph - N/A   Clear
9:53 AM 81.0 °F 83.0 °F 66.0 °F 60% 30.00 in 10.0 mi WSW 9.2 mph - N/A   Clear
10:53 AM 81.0 °F 83.3 °F 66.9 °F 62% 29.99 in 10.0 mi SW 9.2 mph - N/A   Clear
11:53 AM 82.9 °F 85.4 °F 66.9 °F 58% 29.98 in 10.0 mi WSW 10.4 mph - N/A   Clear
12:53 PM 82.9 °F 85.0 °F 66.0 °F 56% 29.96 in 10.0 mi West 10.4 mph - N/A   Mostly Cloudy
1:53 PM 82.9 °F 85.4 °F 66.9 °F 58% 29.94 in 10.0 mi West 10.4 mph - N/A   Partly Cloudy
2:53 PM 84.0 °F 86.5 °F 66.9 °F 56% 29.92 in 10.0 mi West 11.5 mph - N/A   Scattered Clouds
3:53 PM 82.0 °F 84.5 °F 66.9 °F 60% 29.91 in 10.0 mi WNW 12.7 mph - N/A   Partly Cloudy
4:53 PM 82.0 °F 84.9 °F 68.0 °F 62% 29.93 in 10.0 mi WNW 11.5 mph - N/A   Partly Cloudy
5:53 PM 80.1 °F 82.1 °F 66.0 °F 62% 29.94 in 10.0 mi West 10.4 mph - N/A   Clear
6:53 PM 79.0 °F - 68.0 °F 69% 29.94 in 10.0 mi West 6.9 mph - N/A   Clear
7:53 PM 79.0 °F - 68.0 °F 69% 29.96 in 10.0 mi Calm Calm - N/A   Clear
8:53 PM 77.0 °F - 66.0 °F 69% 29.97 in 10.0 mi ESE 5.8 mph - N/A   Clear
9:53 PM 75.9 °F - 64.0 °F 67% 29.99 in 10.0 mi ESE 6.9 mph - N/A   Partly Cloudy
10:53 PM 77.0 °F - 63.0 °F 62% 29.99 in 10.0 mi ESE 8.1 mph - N/A   Mostly Cloudy
11:53 PM 77.0 °F - 64.0 °F 64% 29.99 in 10.0 mi SE 6.9 mph - N/A   Mostly Cloudy